Time,TemperatureF,DewpointF,PressureIn,WindDirection,WindDirectionDegrees,WindSpeedMPH,WindSpeedGustMPH,Humidity,HourlyPrecipIn,Conditions,Clouds,dailyrainin,SolarRadiationWatts/m^2,SoftwareType,DateUTC
2013-05-09 00:09:00,59.9,58.0,29.98,ESE,103,5.0,6.0,93,0.00,,,0.00,0,weatherlink.com 1.10,2013-05-09 04:09:00,
2013-05-09 00:24:00,59.9,58.0,29.98,ESE,104,0.0,1.0,94,0.00,,,0.00,0,weatherlink.com 1.10,2013-05-09 04:24:00,
2013-05-09 00:39:00,59.8,58.0,29.97,SE,142,5.0,10.0,94,0.00,,,0.00,0,weatherlink.com 1.10,2013-05-09 04:39:00,
2013-05-09 00:54:00,59.5,58.0,29.97,SE,138,0.0,11.0,94,0.00,,,0.00,0,weatherlink.com 1.10,2013-05-09 04:54:00,
2013-05-09 01:09:00,59.3,58.0,29.96,SE,129,5.0,8.0,94,0.00,,,0.00,0,weatherlink.com 1.10,2013-05-09 05:09:00,
2013-05-09 01:24:00,59.2,58.0,29.96,SE,126,1.0,6.0,94,0.00,,,0.00,0,weatherlink.com 1.10,2013-05-09 05:24:00,
2013-05-09 01:39:00,58.9,58.0,29.95,ESE,115,1.0,7.0,95,0.00,,,0.00,0,weatherlink.com 1.10,2013-05-09 05:39:00,
2013-05-09 01:54:00,58.7,57.0,29.95,ESE,122,1.0,9.0,95,0.00,,,0.00,0,weatherlink.com 1.10,2013-05-09 05:54:00,
2013-05-09 02:09:00,58.6,57.0,29.95,SE,130,6.0,8.0,95,0.00,,,0.00,0,weatherlink.com 1.10,2013-05-09 06:09:00,
2013-05-09 02:25:00,58.4,57.0,29.94,ESE,117,0.0,7.0,95,0.00,,,0.00,0,weatherlink.com 1.10,2013-05-09 06:25:00,
2013-05-09 02:40:00,58.3,57.0,29.94,ESE,115,0.0,6.0,95,0.00,,,0.00,0,weatherlink.com 1.10,2013-05-09 06:40:00,
2013-05-09 02:55:00,58.1,57.0,29.93,ESE,107,3.0,5.0,95,0.00,,,0.00,0,weatherlink.com 1.10,2013-05-09 06:55:00,
2013-05-09 03:10:00,57.8,56.0,29.94,ESE,103,0.0,6.0,95,0.00,,,0.00,0,weatherlink.com 1.10,2013-05-09 07:10:00,
2013-05-09 03:25:00,57.5,56.0,29.93,ESE,103,0.0,4.0,95,0.00,,,0.00,0,weatherlink.com 1.10,2013-05-09 07:25:00,
2013-05-09 03:40:00,57.3,56.0,29.93,ESE,103,0.0,4.0,96,0.00,,,0.00,0,weatherlink.com 1.10,2013-05-09 07:40:00,
2013-05-09 03:55:00,57.2,56.0,29.93,ESE,103,0.0,0.0,96,0.00,,,0.00,0,weatherlink.com 1.10,2013-05-09 07:55:00,
2013-05-09 04:10:00,57.0,56.0,29.93,ESE,103,0.0,0.0,96,0.00,,,0.00,0,weatherlink.com 1.10,2013-05-09 08:10:00,
2013-05-09 04:25:00,57.0,56.0,29.93,ESE,103,0.0,2.0,96,0.00,,,0.00,0,weatherlink.com 1.10,2013-05-09 08:25:00,
2013-05-09 04:40:00,56.9,56.0,29.93,ESE,103,0.0,0.0,96,0.00,,,0.00,0,weatherlink.com 1.10,2013-05-09 08:40:00,
2013-05-09 04:55:00,56.6,56.0,29.92,ESE,103,0.0,2.0,96,0.00,,,0.00,0,weatherlink.com 1.10,2013-05-09 08:55:00,
2013-05-09 05:10:00,56.3,55.0,29.92,ESE,103,0.0,0.0,96,0.00,,,0.00,0,weatherlink.com 1.10,2013-05-09 09:10:00,
2013-05-09 05:25:00,56.2,55.0,29.92,ESE,103,0.0,0.0,96,0.00,,,0.00,0,weatherlink.com 1.10,2013-05-09 09:25:00,
2013-05-09 05:40:00,56.0,55.0,29.92,ESE,103,1.0,4.0,96,0.00,,,0.00,0,weatherlink.com 1.10,2013-05-09 09:40:00,
2013-05-09 05:55:00,56.0,55.0,29.92,ESE,103,0.0,0.0,96,0.00,,,0.00,7,weatherlink.com 1.10,2013-05-09 09:55:00,
2013-05-09 06:10:00,55.9,55.0,29.91,ESE,103,0.0,0.0,96,0.00,,,0.00,23,weatherlink.com 1.10,2013-05-09 10:10:00,
2013-05-09 06:25:00,55.9,55.0,29.92,ESE,103,0.0,0.0,96,0.00,,,0.00,33,weatherlink.com 1.10,2013-05-09 10:25:00,
2013-05-09 06:40:00,56.0,55.0,29.92,ESE,103,0.0,0.0,96,0.00,,,0.00,37,weatherlink.com 1.10,2013-05-09 10:40:00,
2013-05-09 06:55:00,56.0,55.0,29.92,ESE,103,0.0,0.0,96,0.00,,,0.00,47,weatherlink.com 1.10,2013-05-09 10:55:00,
2013-05-09 07:10:00,56.0,55.0,29.92,NE,44,2.0,6.0,96,0.00,,,0.00,100,weatherlink.com 1.10,2013-05-09 11:10:00,
2013-05-09 07:25:00,55.9,55.0,29.92,NE,43,0.0,5.0,96,0.00,,,0.00,44,weatherlink.com 1.10,2013-05-09 11:25:00,
2013-05-09 07:40:00,56.0,55.0,29.93,NE,43,0.0,2.0,96,0.00,,,0.00,135,weatherlink.com 1.10,2013-05-09 11:40:00,
2013-05-09 07:55:00,56.2,55.0,29.93,NE,44,1.0,5.0,97,0.00,,,0.00,114,weatherlink.com 1.10,2013-05-09 11:55:00,
2013-05-09 08:10:00,56.3,56.0,29.92,NE,44,0.0,0.0,97,0.00,,,0.00,88,weatherlink.com 1.10,2013-05-09 12:10:00,
2013-05-09 08:25:00,56.5,56.0,29.93,NE,44,0.0,1.0,97,0.00,,,0.00,69,weatherlink.com 1.10,2013-05-09 12:25:00,
2013-05-09 08:40:00,56.7,56.0,29.93,NE,44,0.0,0.0,97,0.00,,,0.00,102,weatherlink.com 1.10,2013-05-09 12:40:00,
2013-05-09 08:55:00,57.2,56.0,29.93,NE,44,0.0,0.0,97,0.00,,,0.00,144,weatherlink.com 1.10,2013-05-09 12:55:00,
2013-05-09 09:10:00,57.3,57.0,29.92,NE,44,3.0,4.0,97,0.00,,,0.00,104,weatherlink.com 1.10,2013-05-09 13:10:00,
2013-05-09 09:25:00,57.2,56.0,29.92,NE,44,0.0,4.0,97,0.00,,,0.00,134,weatherlink.com 1.10,2013-05-09 13:25:00,
2013-05-09 09:40:00,57.3,57.0,29.92,NE,44,0.0,4.0,97,0.00,,,0.00,98,weatherlink.com 1.10,2013-05-09 13:40:00,
2013-05-09 09:55:00,57.2,56.0,29.92,NE,44,1.0,1.0,97,0.01,,,0.01,98,weatherlink.com 1.10,2013-05-09 13:55:00,
2013-05-09 10:10:00,57.3,57.0,29.92,NE,44,0.0,1.0,97,0.01,,,0.01,100,weatherlink.com 1.10,2013-05-09 14:10:00,
2013-05-09 10:25:00,57.5,57.0,29.92,NE,44,0.0,0.0,97,0.01,,,0.01,111,weatherlink.com 1.10,2013-05-09 14:25:00,
2013-05-09 10:40:00,58.0,57.0,29.92,NE,44,0.0,0.0,97,0.01,,,0.01,174,weatherlink.com 1.10,2013-05-09 14:40:00,
2013-05-09 10:55:00,58.3,58.0,29.92,NE,44,0.0,0.0,97,0.00,,,0.01,102,weatherlink.com 1.10,2013-05-09 14:55:00,
2013-05-09 11:10:00,58.6,58.0,29.92,NE,46,0.0,6.0,97,0.00,,,0.01,181,weatherlink.com 1.10,2013-05-09 15:10:00,
2013-05-09 11:25:00,59.2,58.0,29.91,NE,47,0.0,6.0,96,0.00,,,0.01,192,weatherlink.com 1.10,2013-05-09 15:25:00,
2013-05-09 11:40:00,59.5,58.0,29.91,NE,47,0.0,0.0,96,0.00,,,0.01,167,weatherlink.com 1.10,2013-05-09 15:40:00,
2013-05-09 11:55:00,59.8,58.0,29.91,NE,47,3.0,4.0,94,0.00,,,0.01,260,weatherlink.com 1.10,2013-05-09 15:55:00,
2013-05-09 12:10:00,60.2,58.0,29.90,NE,47,0.0,6.0,91,0.00,,,0.01,315,weatherlink.com 1.10,2013-05-09 16:10:00,
2013-05-09 12:25:00,60.7,57.0,29.90,ESE,115,4.0,8.0,88,0.00,,,0.01,234,weatherlink.com 1.10,2013-05-09 16:25:00,
2013-05-09 12:40:00,61.0,58.0,29.90,SE,130,4.0,7.0,88,0.00,,,0.01,257,weatherlink.com 1.10,2013-05-09 16:40:00,
2013-05-09 12:55:00,61.2,58.0,29.90,SE,142,6.0,7.0,89,0.00,,,0.01,250,weatherlink.com 1.10,2013-05-09 16:55:00,
2013-05-09 13:10:00,61.2,58.0,29.90,SSE,153,5.0,8.0,89,0.00,,,0.01,176,weatherlink.com 1.10,2013-05-09 17:10:00,
2013-05-09 13:25:00,60.9,58.0,29.90,SE,126,0.0,8.0,89,0.00,,,0.01,188,weatherlink.com 1.10,2013-05-09 17:25:00,
2013-05-09 13:40:00,60.7,58.0,29.89,SE,126,5.0,7.0,89,0.00,,,0.01,172,weatherlink.com 1.10,2013-05-09 17:40:00,
2013-05-09 14:10:00,60.7,58.0,29.87,SE,126,0.0,5.0,90,0.00,,,0.01,148,weatherlink.com 1.10,2013-05-09 18:10:00,
2013-05-09 14:25:00,60.7,58.0,29.87,SE,126,0.0,4.0,90,0.00,,,0.01,132,weatherlink.com 1.10,2013-05-09 18:25:00,
2013-05-09 14:40:00,60.7,58.0,29.87,SE,126,0.0,4.0,90,0.00,,,0.01,229,weatherlink.com 1.10,2013-05-09 18:40:00,
2013-05-09 14:55:00,61.5,58.0,29.87,SE,126,4.0,7.0,89,0.00,,,0.01,362,weatherlink.com 1.10,2013-05-09 18:55:00,
2013-05-09 15:10:00,62.1,59.0,29.86,SE,138,5.0,8.0,88,0.00,,,0.01,371,weatherlink.com 1.10,2013-05-09 19:10:00,
2013-05-09 15:25:00,62.9,58.0,29.86,SSE,165,0.0,7.0,84,0.00,,,0.01,385,weatherlink.com 1.10,2013-05-09 19:25:00,
2013-05-09 15:41:00,63.5,57.0,29.85,SSW,200,9.0,11.0,80,0.00,,,0.01,742,weatherlink.com 1.10,2013-05-09 19:41:00,
2013-05-09 15:56:00,64.2,57.0,29.85,South,178,4.0,10.0,78,0.00,,,0.01,977,weatherlink.com 1.10,2013-05-09 19:56:00,
2013-05-09 16:11:00,66.9,57.0,29.84,SSE,153,5.0,8.0,70,0.00,,,0.01,156,weatherlink.com 1.10,2013-05-09 20:11:00,
2013-05-09 16:26:00,66.9,57.0,29.84,ESE,113,1.0,7.0,71,0.00,,,0.01,666,weatherlink.com 1.10,2013-05-09 20:26:00,
2013-05-09 16:41:00,66.3,57.0,29.84,SE,130,3.0,9.0,73,0.00,,,0.01,281,weatherlink.com 1.10,2013-05-09 20:41:00,
2013-05-09 16:56:00,66.3,57.0,29.83,SE,126,1.0,6.0,73,0.00,,,0.01,531,weatherlink.com 1.10,2013-05-09 20:56:00,
2013-05-09 17:11:00,66.6,57.0,29.82,SE,130,5.0,8.0,71,0.00,,,0.01,151,weatherlink.com 1.10,2013-05-09 21:11:00,
2013-05-09 17:26:00,66.9,56.0,29.83,SE,126,6.0,7.0,69,0.00,,,0.01,401,weatherlink.com 1.10,2013-05-09 21:26:00,
2013-05-09 17:41:00,67.9,56.0,29.82,SE,128,1.0,7.0,66,0.00,,,0.01,362,weatherlink.com 1.10,2013-05-09 21:41:00,
2013-05-09 17:56:00,67.6,57.0,29.82,SSE,154,9.0,12.0,68,0.00,,,0.01,146,weatherlink.com 1.10,2013-05-09 21:56:00,
2013-05-09 18:11:00,66.3,57.0,29.82,South,180,9.0,10.0,72,0.00,,,0.01,141,weatherlink.com 1.10,2013-05-09 22:11:00,
2013-05-09 18:26:00,66.4,57.0,29.82,South,180,5.0,13.0,71,0.00,,,0.01,69,weatherlink.com 1.10,2013-05-09 22:26:00,
2013-05-09 18:41:00,65.6,57.0,29.82,SE,142,5.0,12.0,73,0.00,,,0.01,14,weatherlink.com 1.10,2013-05-09 22:41:00,
2013-05-09 18:56:00,64.5,57.0,29.82,SE,136,6.0,11.0,77,0.00,,,0.01,12,weatherlink.com 1.10,2013-05-09 22:56:00,
2013-05-09 19:11:00,63.5,57.0,29.83,SSE,153,7.0,10.0,79,0.00,,,0.01,12,weatherlink.com 1.10,2013-05-09 23:11:00,
2013-05-09 19:26:00,62.6,57.0,29.84,SE,143,7.0,14.0,82,0.00,,,0.01,12,weatherlink.com 1.10,2013-05-09 23:26:00,
2013-05-09 19:41:00,62.0,58.0,29.83,SE,138,0.0,9.0,85,0.00,,,0.01,0,weatherlink.com 1.10,2013-05-09 23:41:00,
2013-05-09 19:56:00,61.3,57.0,29.84,ESE,111,4.0,8.0,86,0.00,,,0.01,0,weatherlink.com 1.10,2013-05-09 23:56:00,
2013-05-09 20:11:00,60.9,57.0,29.84,ESE,111,4.0,7.0,87,0.00,,,0.01,0,weatherlink.com 1.10,2013-05-10 00:11:00,
2013-05-09 20:26:00,60.4,57.0,29.84,ESE,111,0.0,6.0,88,0.00,,,0.01,0,weatherlink.com 1.10,2013-05-10 00:26:00,
2013-05-09 20:41:00,60.1,57.0,29.84,ESE,111,0.0,6.0,88,0.00,,,0.01,0,weatherlink.com 1.10,2013-05-10 00:41:00,
2013-05-09 20:56:00,59.8,57.0,29.84,ESE,111,0.0,0.0,89,0.00,,,0.01,0,weatherlink.com 1.10,2013-05-10 00:56:00,
2013-05-09 21:11:00,59.3,56.0,29.84,ESE,111,0.0,0.0,89,0.00,,,0.01,0,weatherlink.com 1.10,2013-05-10 01:11:00,
2013-05-09 21:26:00,59.0,56.0,29.85,ESE,111,0.0,0.0,90,0.00,,,0.01,0,weatherlink.com 1.10,2013-05-10 01:26:00,
2013-05-09 21:41:00,58.9,56.0,29.86,ESE,111,0.0,0.0,91,0.00,,,0.01,0,weatherlink.com 1.10,2013-05-10 01:41:00,
2013-05-09 21:56:00,58.6,56.0,29.86,ESE,111,0.0,0.0,92,0.00,,,0.01,0,weatherlink.com 1.10,2013-05-10 01:56:00,
2013-05-09 22:11:00,58.3,56.0,29.86,ESE,111,0.0,4.0,92,0.00,,,0.01,0,weatherlink.com 1.10,2013-05-10 02:11:00,
2013-05-09 22:26:00,58.1,56.0,29.86,ESE,111,0.0,1.0,92,0.00,,,0.01,0,weatherlink.com 1.10,2013-05-10 02:26:00,
2013-05-09 22:41:00,57.6,55.0,29.85,ESE,111,0.0,0.0,92,0.00,,,0.01,0,weatherlink.com 1.10,2013-05-10 02:41:00,
2013-05-09 22:56:00,57.3,55.0,29.85,ESE,111,0.0,0.0,93,0.00,,,0.01,0,weatherlink.com 1.10,2013-05-10 02:56:00,
2013-05-09 23:11:00,56.9,55.0,29.84,ESE,111,0.0,5.0,94,0.00,,,0.01,0,weatherlink.com 1.10,2013-05-10 03:11:00,
2013-05-09 23:26:00,56.6,55.0,29.84,ESE,111,0.0,0.0,94,0.00,,,0.01,0,weatherlink.com 1.10,2013-05-10 03:26:00,
2013-05-09 23:41:00,56.2,55.0,29.84,ESE,111,5.0,6.0,94,0.00,,,0.01,0,weatherlink.com 1.10,2013-05-10 03:41:00,
2013-05-09 23:56:00,56.3,55.0,29.84,ESE,111,5.0,7.0,95,0.00,,,0.01,0,weatherlink.com 1.10,2013-05-10 03:56:00,